| time (UTC) | temp F | wind direction | speed knots | gust knots | rain 1hr in | rain 24hr in | rain mn in | humidity % | barometer mb |
| 20260510113029 | 67 | 12 | 2.6 | 9.6 | 0.00 | 0.00 | 0.00 | 20 | 1015.9 |
| 20260510112026 | 68 | 51 | 4.3 | 8.7 | 0.00 | 0.00 | 0.00 | 22 | 1015.9 |
| 20260510111022 | 67 | 82 | 4.3 | 10.4 | 0.00 | 0.00 | 0.00 | 24 | 1016.1 |
| 20260510110018 | 66 | 66 | 4.3 | 10.4 | 0.00 | 0.00 | 0.00 | 22 | 1016.2 |
| 20260510105115 | 66 | 123 | 4.3 | 9.6 | 0.00 | 0.00 | 0.00 | 23 | 1016.3 |
| 20260510104111 | 66 | 113 | 2.6 | 9.6 | 0.00 | 0.00 | 0.00 | 23 | 1016.3 |
| 20260510103128 | 66 | 69 | 3.5 | 9.6 | 0.00 | 0.00 | 0.00 | 24 | 1016.5 |
| 20260510102104 | 66 | 114 | 3.5 | 11.3 | 0.00 | 0.00 | 0.00 | 22 | 1016.5 |
| 20260510101100 | 66 | 293 | 3.5 | 7.8 | 0.00 | 0.00 | 0.00 | 25 | 1016.6 |
| 20260510100057 | 66 | 345 | 2.6 | 7.8 | 0.00 | 0.00 | 0.00 | 24 | 1016.7 |
| 20260510095053 | 66 | 82 | 3.5 | 9.6 | 0.00 | 0.00 | 0.00 | 25 | 1016.7 |
| 20260510094049 | 66 | 105 | 3.5 | 7.8 | 0.00 | 0.00 | 0.00 | 23 | 1016.9 |
| 20260510093046 | 67 | 129 | 2.6 | 9.6 | 0.00 | 0.00 | 0.00 | 25 | 1016.9 |
| 20260510092101 | 66 | 323 | 2.6 | 7.8 | 0.00 | 0.00 | 0.00 | 25 | 1017.0 |
| 20260510091037 | 67 | 147 | 2.6 | 7.0 | 0.00 | 0.00 | 0.00 | 26 | 1017.0 |
| 20260510090034 | 66 | 9 | 2.6 | 7.8 | 0.00 | 0.00 | 0.00 | 27 | 1017.0 |
| 20260510085030 | 65 | 45 | 2.6 | 7.8 | 0.00 | 0.00 | 0.00 | 29 | 1017.0 |
| 20260510084045 | 65 | 88 | 3.5 | 10.4 | 0.00 | 0.00 | 0.00 | 29 | 1017.1 |
| 20260510083023 | 65 | 43 | 3.5 | 7.8 | 0.00 | 0.00 | 0.00 | 30 | 1017.2 |
| 20260510082018 | 65 | 17 | 2.6 | 9.6 | 0.00 | 0.00 | 0.00 | 31 | 1017.2 |
| 20260510081115 | 65 | 128 | 3.5 | 9.6 | 0.00 | 0.00 | 0.00 | 33 | 1017.3 |
| 20260510080131 | 64 | 86 | 3.5 | 8.7 | 0.00 | 0.00 | 0.00 | 34 | 1017.4 |
| 20260510075108 | 65 | 120 | 1.7 | 3.5 | 0.00 | 0.00 | 0.00 | 37 | 1017.5 |
| 20260510074104 | 64 | 120 | 2.6 | 7.0 | 0.00 | 0.00 | 0.00 | 39 | 1017.7 |
| 20260510073100 | 63 | 39 | 2.6 | 9.6 | 0.00 | 0.00 | 0.00 | 40 | 1017.8 |
| 20260510072056 | 63 | 48 | 2.6 | 7.0 | 0.00 | 0.00 | 0.00 | 42 | 1017.7 |
| 20260510071053 | 61 | 78 | 2.6 | 7.0 | 0.00 | 0.00 | 0.00 | 43 | 1017.7 |
| 20260510070049 | 61 | 24 | 3.5 | 7.0 | 0.00 | 0.00 | 0.00 | 44 | 1017.8 |
| 20260510065046 | 61 | 65 | 2.6 | 7.0 | 0.00 | 0.00 | 0.00 | 48 | 1017.8 |
| 20260510064043 | 59 | 69 | 0.9 | 7.0 | 0.00 | 0.00 | 0.00 | 55 | 1017.8 |
| 20260510063038 | 58 | 23 | 1.7 | 5.2 | 0.00 | 0.00 | 0.00 | 57 | 1017.9 |
| 20260510062034 | 0 | 0.0 | 0.0 | 0.00 | 0.00 | 0.00 | 1017.9 | ||
| 20260510061030 | 0 | 0.0 | 0.0 | 0.00 | 0.00 | 0.00 | 1018.0 | ||
| 20260510060026 | 0 | 0.0 | 0.0 | 0.00 | 0.00 | 0.00 | 1017.9 | ||
| 20260510055023 | 0 | 0.0 | 0.0 | 0.00 | 0.00 | 0.00 | 1017.9 | ||
| 20260510054019 | 51 | 23 | 1.7 | 2.6 | 0.00 | 0.00 | 0.00 | 82 | 1017.9 |
| 20260510053037 | 0 | 0.0 | 0.0 | 0.00 | 0.00 | 0.00 | 1017.8 | ||
| 20260510052133 | 0 | 0.0 | 0.0 | 0.00 | 0.00 | 0.00 | 1017.9 | ||
| 20260510051109 | 0 | 0.0 | 0.0 | 0.00 | 0.00 | 0.00 | 1017.8 | ||
| 20260510050105 | 0 | 0.0 | 0.0 | 0.00 | 0.00 | 0.00 | 1017.9 | ||
| 20260510045102 | 0 | 0.0 | 0.0 | 0.00 | 0.00 | 0.00 | 1017.8 | ||
| 20260510044058 | 0 | 0.0 | 0.0 | 0.00 | 0.00 | 0.00 | 1017.9 | ||
| 20260510043115 | 0 | 0.0 | 0.0 | 0.00 | 0.00 | 0.00 | 1017.9 | ||
| 20260510042051 | 0 | 0.0 | 0.0 | 0.00 | 0.00 | 0.00 | 1017.7 | ||
| 20260510041047 | 0 | 0.0 | 0.0 | 0.00 | 0.00 | 0.00 | 1017.6 | ||
| 20260510040043 | 0 | 0.0 | 0.0 | 0.00 | 0.00 | 0.00 | 1017.7 | ||
| 20260510035100 | 0 | 0.0 | 0.0 | 0.00 | 0.00 | 0.00 | 1017.9 | ||
| 20260510034037 | 0 | 0.0 | 0.0 | 0.00 | 0.00 | 0.00 | 1017.9 | ||
| 20260510033033 | 0 | 0.0 | 0.0 | 0.00 | 0.00 | 0.00 | 1017.8 | ||
| 20260510032029 | 0 | 0.0 | 0.0 | 0.00 | 0.00 | 0.00 | 1017.9 | ||
| 20260510031026 | 0 | 0.0 | 0.0 | 0.00 | 0.00 | 0.00 | 1017.8 | ||
| 20260510030022 | 0 | 0.0 | 0.0 | 0.00 | 0.00 | 0.00 | 1017.9 | ||
| 20260510025018 | 0 | 0.0 | 0.0 | 0.00 | 0.00 | 0.00 | 1017.9 | ||
| 20260510024113 | 0 | 0.0 | 0.0 | 0.00 | 0.00 | 0.00 | 1018.0 | ||
| 20260510023106 | 0 | 0.0 | 0.0 | 0.00 | 0.00 | 0.00 | 1018.1 | ||
| 20260510022103 | 0 | 0.0 | 0.0 | 0.00 | 0.00 | 0.00 | 1018.0 | ||
| 20260510021059 | 45 | 0.0 | 0.0 | 0.00 | 0.00 | 0.00 | 96 | 1018.1 | |
| 20260510020055 | 48 | 0.0 | 0.9 | 0.00 | 0.00 | 0.00 | 76 | 1018.0 | |
| 20260510015051 | 48 | 0.0 | 0.9 | 0.00 | 0.00 | 0.00 | 72 | 1018.0 | |
| 20260510014048 | 48 | 270 | 0.0 | 1.7 | 0.00 | 0.00 | 0.00 | 71 | 1018.0 |
| 20260510013044 | 49 | 0.0 | 0.0 | 0.00 | 0.00 | 0.00 | 71 | 1018.2 | |
| 20260510012041 | 49 | 0.0 | 1.7 | 0.00 | 0.00 | 0.00 | 70 | 1018.3 | |
| 20260510011057 | 49 | 315 | 0.9 | 1.7 | 0.00 | 0.00 | 0.00 | 69 | 1018.2 |
| 20260510010033 | 49 | 315 | 0.0 | 1.7 | 0.00 | 0.00 | 0.00 | 68 | 1018.2 |
| 20260510005030 | 49 | 0.0 | 0.9 | 0.00 | 0.00 | 0.00 | 68 | 1018.3 | |
| 20260510004026 | 49 | 0.0 | 0.0 | 0.00 | 0.00 | 0.00 | 66 | 1018.3 | |
| 20260510003023 | 50 | 326 | 0.0 | 1.7 | 0.00 | 0.00 | 0.00 | 66 | 1018.2 |
| 20260510002039 | 50 | 0.0 | 0.9 | 0.00 | 0.00 | 0.00 | 65 | 1018.3 | |
| 20260510001015 | 50 | 338 | 0.0 | 1.7 | 0.00 | 0.00 | 0.00 | 64 | 1018.5 |
| 20260510000112 | 50 | 0.0 | 1.7 | 0.00 | 0.00 | 0.00 | 64 | 1018.5 | |
| 20260509235128 | 50 | 326 | 0.0 | 1.7 | 0.00 | 0.00 | 0.00 | 63 | 1018.6 |
| 20260509234124 | 50 | 315 | 0.0 | 1.7 | 0.00 | 0.00 | 0.00 | 62 | 1018.5 |
| 20260509233100 | 51 | 315 | 0.0 | 1.7 | 0.00 | 0.00 | 0.00 | 62 | 1018.5 |
| 20260509232056 | 51 | 0.0 | 1.7 | 0.00 | 0.00 | 0.00 | 62 | 1018.5 | |
| 20260509231053 | 51 | 315 | 0.9 | 3.5 | 0.00 | 0.00 | 0.00 | 62 | 1018.6 |
| 20260509230049 | 51 | 315 | 0.9 | 1.7 | 0.00 | 0.00 | 0.00 | 62 | 1018.7 |
| 20260509225046 | 51 | 0 | 0.0 | 1.7 | 0.00 | 0.00 | 0.00 | 60 | 1018.6 |
| 20260509224042 | 51 | 315 | 0.0 | 1.7 | 0.00 | 0.00 | 0.00 | 59 | 1018.8 |
| 20260509223039 | 52 | 315 | 0.0 | 1.7 | 0.00 | 0.00 | 0.00 | 58 | 1018.8 |
| 20260509222036 | 52 | 315 | 0.0 | 1.7 | 0.00 | 0.00 | 0.00 | 57 | 1018.8 |
| 20260509221031 | 53 | 0.0 | 0.9 | 0.00 | 0.00 | 0.00 | 56 | 1018.9 | |
| 20260509220027 | 53 | 315 | 0.0 | 1.7 | 0.00 | 0.00 | 0.00 | 55 | 1018.7 |
| 20260509215023 | 53 | 0.0 | 0.0 | 0.00 | 0.00 | 0.00 | 54 | 1018.7 | |
| 20260509214039 | 53 | 315 | 0.0 | 1.7 | 0.00 | 0.00 | 0.00 | 53 | 1018.6 |
| 20260509213015 | 54 | 315 | 0.0 | 1.7 | 0.00 | 0.00 | 0.00 | 53 | 1018.7 |
| 20260509212112 | 54 | 338 | 0.0 | 1.7 | 0.00 | 0.00 | 0.00 | 52 | 1018.6 |
| 20260509211108 | 55 | 326 | 0.0 | 2.6 | 0.00 | 0.00 | 0.00 | 50 | 1018.5 |
| 20260509210104 | 55 | 315 | 0.0 | 1.7 | 0.00 | 0.00 | 0.00 | 49 | 1018.6 |
| 20260509205101 | 55 | 308 | 0.0 | 1.7 | 0.00 | 0.00 | 0.00 | 48 | 1018.6 |
| 20260509204057 | 56 | 0.0 | 0.0 | 0.00 | 0.00 | 0.00 | 46 | 1018.7 | |
| 20260509203053 | 57 | 80 | 0.9 | 3.5 | 0.00 | 0.00 | 0.00 | 44 | 1018.9 |
| 20260509202049 | 58 | 293 | 0.0 | 1.7 | 0.00 | 0.00 | 0.00 | 43 | 1018.7 |
| 20260509201106 | 58 | 349 | 0.9 | 3.5 | 0.00 | 0.00 | 0.00 | 42 | 1018.7 |
| 20260509200042 | 59 | 23 | 0.0 | 1.7 | 0.00 | 0.00 | 0.00 | 42 | 1018.4 |
| 20260509195058 | 59 | 338 | 0.0 | 2.6 | 0.00 | 0.00 | 0.00 | 41 | 1018.5 |
| 20260509194035 | 59 | 52 | 0.0 | 2.6 | 0.00 | 0.00 | 0.00 | 40 | 1018.5 |
| 20260509193051 | 59 | 315 | 0.9 | 4.3 | 0.00 | 0.00 | 0.00 | 40 | 1018.6 |
| 20260509192027 | 60 | 0.0 | 1.7 | 0.00 | 0.00 | 0.00 | 39 | 1018.5 | |
| 20260509191023 | 0 | 0.0 | 0.0 | 0.00 | 0.00 | 0.00 | 1018.5 | ||
| 20260509190040 | 0 | 0.0 | 0.0 | 0.00 | 0.00 | 0.00 | 1018.4 | ||
| 20260509185016 | 63 | 315 | 0.9 | 1.7 | 0.00 | 0.00 | 0.00 | 32 | 1018.4 |
| 20260509184112 | 64 | 23 | 0.0 | 1.7 | 0.00 | 0.00 | 0.00 | 30 | 1018.3 |
| 20260509183109 | 64 | 338 | 0.9 | 1.7 | 0.00 | 0.00 | 0.00 | 29 | 1018.3 |
| 20260509182105 | 65 | 304 | 0.0 | 2.6 | 0.00 | 0.00 | 0.00 | 28 | 1018.1 |
| 20260509181106 | 66 | 133 | 1.7 | 4.3 | 0.00 | 0.00 | 0.00 | 24 | 1018.0 |
| 20260509180058 | 66 | 61 | 1.7 | 4.3 | 0.00 | 0.00 | 0.00 | 24 | 1018.0 |
| 20260509175102 | 67 | 122 | 0.9 | 3.5 | 0.00 | 0.00 | 0.00 | 24 | 1017.9 |
| 20260509174050 | 67 | 104 | 0.9 | 3.5 | 0.00 | 0.00 | 0.00 | 24 | 1017.7 |
| 20260509173107 | 68 | 318 | 0.9 | 3.5 | 0.00 | 0.00 | 0.00 | 24 | 1017.6 |
| 20260509172043 | 68 | 0.0 | 1.7 | 0.00 | 0.00 | 0.00 | 23 | 1017.7 | |
| 20260509171059 | 69 | 306 | 0.9 | 1.7 | 0.00 | 0.00 | 0.00 | 22 | 1017.7 |
| 20260509170036 | 69 | 315 | 0.0 | 1.7 | 0.00 | 0.00 | 0.00 | 20 | 1017.7 |
| 20260509165032 | 69 | 84 | 0.9 | 3.5 | 0.00 | 0.00 | 0.00 | 19 | 1017.8 |
| 20260509164029 | 69 | 13 | 0.9 | 4.3 | 0.00 | 0.00 | 0.00 | 17 | 1017.8 |
| 20260509163025 | 69 | 108 | 0.9 | 3.5 | 0.00 | 0.00 | 0.00 | 20 | 1018.0 |
| 20260509162021 | 69 | 3 | 0.9 | 1.7 | 0.00 | 0.00 | 0.00 | 19 | 1017.8 |
| 20260509161037 | 68 | 33 | 0.9 | 1.7 | 0.00 | 0.00 | 0.00 | 21 | 1017.8 |
| 20260509160134 | 68 | 44 | 0.0 | 1.7 | 0.00 | 0.00 | 0.00 | 23 | 1017.9 |
| 20260509155110 | 68 | 135 | 0.0 | 1.7 | 0.00 | 0.00 | 0.00 | 24 | 1017.9 |
| 20260509154106 | 68 | 90 | 0.0 | 1.7 | 0.00 | 0.00 | 0.00 | 20 | 1018.0 |
| 20260509153123 | 68 | 129 | 1.7 | 3.5 | 0.00 | 0.00 | 0.00 | 19 | 1018.0 |
| 20260509152059 | 70 | 103 | 2.6 | 7.0 | 0.00 | 0.00 | 0.00 | 17 | 1018.0 |
| 20260509151055 | 71 | 120 | 4.3 | 8.7 | 0.00 | 0.00 | 0.00 | 14 | 1018.0 |
| 20260509150052 | 71 | 46 | 1.7 | 7.8 | 0.00 | 0.00 | 0.00 | 13 | 1018.0 |
| 20260509145049 | 72 | 131 | 1.7 | 6.1 | 0.00 | 0.00 | 0.00 | 13 | 1018.0 |
| 20260509144044 | 71 | 351 | 0.0 | 1.7 | 0.00 | 0.00 | 0.00 | 12 | 1018.2 |
| 20260509143041 | 70 | 145 | 0.9 | 3.5 | 0.00 | 0.00 | 0.00 | 15 | 1018.5 |
| 20260509142037 | 70 | 338 | 0.0 | 1.7 | 0.00 | 0.00 | 0.00 | 16 | 1018.5 |
| 20260509141033 | 71 | 95 | 1.7 | 3.5 | 0.00 | 0.00 | 0.00 | 15 | 1018.7 |
| 20260509140030 | 71 | 115 | 5.2 | 9.6 | 0.00 | 0.00 | 0.00 | 16 | 1018.8 |
| 20260509135026 | 71 | 85 | 2.6 | 3.5 | 0.00 | 0.00 | 0.00 | 14 | 1018.8 |
| 20260509134022 | 69 | 115 | 1.7 | 4.3 | 0.00 | 0.00 | 0.00 | 17 | 1018.9 |
| 20260509133038 | 69 | 92 | 1.7 | 3.5 | 0.00 | 0.00 | 0.00 | 15 | 1019.1 |
| 20260509132115 | 71 | 82 | 2.6 | 4.3 | 0.00 | 0.00 | 0.00 | 13 | 1019.2 |
| 20260509131111 | 71 | 24 | 3.5 | 7.0 | 0.00 | 0.00 | 0.00 | 17 | 1019.3 |
| 20260509130108 | 71 | 120 | 2.6 | 7.0 | 0.00 | 0.00 | 0.00 | 14 | 1019.5 |
| 20260509125104 | 71 | 120 | 1.7 | 7.0 | 0.00 | 0.00 | 0.00 | 15 | 1019.5 |
| 20260509124100 | 70 | 125 | 2.6 | 7.0 | 0.00 | 0.00 | 0.00 | 18 | 1019.7 |
| 20260509123056 | 72 | 96 | 1.7 | 7.0 | 0.00 | 0.00 | 0.00 | 15 | 1019.8 |
| 20260509121049 | 70 | 6 | 1.7 | 5.2 | 0.00 | 0.00 | 0.00 | 16 | 1019.9 |
| 20260509120046 | 70 | 122 | 2.6 | 5.2 | 0.00 | 0.00 | 0.00 | 16 | 1020.0 |
| 20260509115042 | 70 | 113 | 4.3 | 8.7 | 0.00 | 0.00 | 0.00 | 17 | 1020.1 |
| 20260509114058 | 70 | 79 | 3.5 | 8.7 | 0.00 | 0.00 | 0.00 | 17 | 1020.2 |